Location: Roland
(31.1349°N, 85.4372°W)
Time: 19:56:56
(UTC+00:00)

SR - Pass Details

Date: 16 April 2021
Orbit: 573 x 882 km, 66.7° (Epoch: 13 May)

Event Time Altitude Azimuth Distance (km) Brightness Sun altitude
Rises 23:30:21 0° 331° (NNW) 3,431 ? 7.7°
Reaches altitude 10° 23:32:55 10° 330° (NNW) 2,461 ? 7.2°
Maximum altitude 23:38:34 69° 248° (WSW) 855 ? 6.0°
Drops below altitude 10° 23:43:45 10° 166° (SSE) 2,263 ? 4.9°
Sets 23:46:01 0° 163° (SSE) 3,134 ? 4.4°
